Terminal Aerodrome Forecast
Issued by NWS Twin Cities, MN

Home | Current Version | Previous Version | Text Only | Print | Product List | Glossary Off
Versions: 1 2 3 4 5 6 7 8 9 10 11 12 13 14 15 16

000
FTUS43 KMPX 011723
TAFSTC
TAF
KSTC 011723Z 0118/0218 25009KT P6SM FEW250
     FM011900 28011G17KT P6SM SCT030 BKN050
     FM020300 27008KT P6SM FEW250
     FM021500 VRB05KT P6SM FEW050 SCT250=

USA.gov is the U.S. government's official web portal to all federal, state and local government web resources and services.